Weather History for KMCJ - January, 2013

Change the Weather History Date:

Tuesday, January 15, 2013

  Actual Average (KHOU) Record (KHOU)
Temperature  
Mean Temperature 38 °F 53 °F  
Max Temperature 42 °F 63 °F 79 °F (1996)
Min Temperature 35 °F 43 °F 21 °F (1892)
Degree Days  
Heating Degree Days 26 13  
Month to date heating degree days 195  
Since 1 July heating degree days 734  
Moisture  
Dew Point 35 °F    
Average Humidity 87    
Maximum Humidity 100    
Minimum Humidity 76    
Precipitation  
Precipitation 0.02 in 0.11 in 2.82 in (1919)
Month to date precipitation 1.58  
Year to date precipitation 1.58  
Sea Level Pressure  
Sea Level Pressure 30.06 in    
Wind  
Wind Speed 11 mph (NNE)    
Max Wind Speed 21 mph    
Max Gust Speed 28 mph    
Visibility 8 miles    
Events      
T = Trace of Precipitation, MM = Missing Value Source: NWS Daily Summary

Daily Weather History Graph

Daily Weather History Graph

Search for Another Location

Airport or City:

Trip Planner

Search our weather history database for the weather conditions in past years. The results will help you decide how hot, cold, wet, or windy it might be!

Date:

Astronomy

Jan. 15, 2013 Rise Set
Actual Time 7:17 AM CST 5:44 PM CST
Civil Twilight 6:51 AM CST 6:10 PM CST
Nautical Twilight 6:22 AM CST 6:39 PM CST
Astronomical Twilight 5:53 AM CST 7:08 PM CST
Moon 9:46 AM CST (1/15) 10:10 PM CST (1/15)
Length of Visible Light 11h 18m
Length of Day
10h 27m
Waxing Crescent, 19% of the Moon is Illuminated
Jan 15
Waxing Crescent
Jan 18
First Quarter
Jan 26
Full
Feb 3
Last Quarter
Feb 10
New

Hourly Weather History & Observations

Time (CST) Temp. Windchill Dew Point Humidity Pressure Visibility Wind Dir Wind Speed Gust Speed Precip Events Conditions
12:15 AM 42.8 °F 38.0 °F 35.6 °F 76% 30.06 in 10.0 mi ENE 8.1 mph - N/A   Overcast
12:35 AM 42.8 °F 37.5 °F 35.6 °F 76% 30.06 in 10.0 mi ENE 9.2 mph - N/A   Overcast
12:55 AM 42.8 °F 37.0 °F 37.4 °F 81% 30.05 in 10.0 mi NE 10.4 mph - N/A   Overcast
1:15 AM 42.8 °F 38.6 °F 35.6 °F 76% 30.04 in 10.0 mi ENE 6.9 mph - N/A   Overcast
1:35 AM 42.8 °F 36.6 °F 37.4 °F 81% 30.04 in 10.0 mi ENE 11.5 mph - N/A   Overcast
1:55 AM 41.0 °F 34.3 °F 35.6 °F 81% 30.03 in 10.0 mi ENE 11.5 mph - N/A   Overcast
2:15 AM 42.8 °F 36.6 °F 37.4 °F 81% 30.03 in 10.0 mi NE 11.5 mph - N/A   Overcast
2:35 AM 42.8 °F 37.0 °F 35.6 °F 76% 30.02 in 10.0 mi NE 10.4 mph - N/A   Overcast
2:55 AM 41.0 °F 35.8 °F 35.6 °F 81% 30.02 in 10.0 mi NE 8.1 mph - N/A   Overcast
3:15 AM 41.0 °F 35.2 °F 35.6 °F 81% 30.01 in 9.0 mi NNE 9.2 mph - N/A   Overcast
3:35 AM 41.0 °F 33.5 °F 35.6 °F 81% 30.00 in 10.0 mi NNE 13.8 mph - N/A   Overcast
3:55 AM 41.0 °F 36.4 °F 37.4 °F 87% 30.02 in 10.0 mi NNE 6.9 mph - N/A   Overcast
4:15 AM 41.0 °F 36.4 °F 37.4 °F 87% 30.03 in 10.0 mi NNE 6.9 mph - N/A   Overcast
4:35 AM 39.2 °F 32.5 °F 35.6 °F 87% 30.02 in 8.0 mi NNE 10.4 mph - N/A   Overcast
4:55 AM 39.2 °F 33.0 °F 35.6 °F 87% 30.02 in 3.0 mi NNE 9.2 mph - N/A   Overcast
5:15 AM 39.2 °F 32.0 °F 37.4 °F 93% 30.02 in 2.5 mi NNE 11.5 mph - N/A   Overcast
5:35 AM 39.2 °F 32.0 °F 37.4 °F 93% 30.03 in 2.5 mi NNE 11.5 mph - N/A   Overcast
5:55 AM 39.2 °F 33.0 °F 37.4 °F 93% 30.04 in 3.0 mi North 9.2 mph - N/A   Overcast
6:15 AM 39.2 °F 33.0 °F 37.4 °F 93% 30.03 in 1.5 mi North 9.2 mph - N/A   Overcast
6:35 AM 37.4 °F 30.3 °F 37.4 °F 100% 30.05 in 1.8 mi NNE 10.4 mph 17.3 mph N/A   Overcast
6:55 AM 37.4 °F 29.8 °F 37.4 °F 100% 30.05 in 2.0 mi NNE 11.5 mph - 0.01 in   Overcast
7:15 AM 39.2 °F 33.6 °F 37.4 °F 93% 30.06 in 2.0 mi North 8.1 mph - N/A   Overcast
7:35 AM 37.4 °F 29.3 °F 35.6 °F 93% 30.07 in 1.8 mi North 12.7 mph 17.3 mph N/A   Overcast
7:55 AM 37.4 °F 28.2 °F 35.6 °F 93% 30.08 in 1.8 mi North 16.1 mph 23.0 mph 0.01 in   Overcast
8:15 AM 37.4 °F 29.3 °F 35.6 °F 93% 30.09 in 3.0 mi North 12.7 mph - N/A   Overcast
8:35 AM 37.4 °F 28.9 °F 35.6 °F 93% 30.09 in 8.0 mi North 13.8 mph - N/A   Overcast
8:55 AM 37.4 °F 30.8 °F 35.6 °F 93% 30.09 in 4.0 mi NNE 9.2 mph - N/A   Overcast
9:15 AM 37.4 °F 29.8 °F 35.6 °F 93% 30.08 in 1.8 mi NNE 11.5 mph - N/A   Overcast
9:35 AM 37.4 °F 29.8 °F 35.6 °F 93% 30.08 in 1.5 mi NNE 11.5 mph - N/A   Overcast
9:55 AM 37.4 °F 29.8 °F 35.6 °F 93% 30.09 in 1.2 mi North 11.5 mph - N/A   Overcast
10:15 AM 37.4 °F 28.2 °F 35.6 °F 93% 30.08 in 3.0 mi NNE 16.1 mph 19.6 mph N/A   Overcast
10:35 AM 37.4 °F 30.8 °F 35.6 °F 93% 30.08 in 3.0 mi NNE 9.2 mph - N/A   Overcast
10:55 AM 37.4 °F 28.9 °F 35.6 °F 93% 30.07 in 8.0 mi North 13.8 mph 18.4 mph N/A   Overcast
11:15 AM 37.4 °F 28.2 °F 35.6 °F 93% 30.06 in 7.0 mi North 16.1 mph - N/A   Overcast
11:35 AM 37.4 °F 30.8 °F 33.8 °F 87% 30.05 in 10.0 mi North 9.2 mph - N/A   Overcast
11:55 AM 37.4 °F 28.2 °F 33.8 °F 87% 30.04 in 10.0 mi NNE 16.1 mph 20.7 mph N/A   Overcast
12:15 PM 37.4 °F 30.3 °F 32.0 °F 81% 30.05 in 10.0 mi NNE 10.4 mph 17.3 mph N/A   Overcast
12:35 PM 37.4 °F 30.3 °F 33.8 °F 87% 30.02 in 10.0 mi North 10.4 mph - N/A   Overcast
12:55 PM 37.4 °F 31.4 °F 33.8 °F 87% 30.01 in 10.0 mi NNE 8.1 mph - N/A   Overcast
1:35 PM 37.4 °F 31.4 °F 33.8 °F 87% 30.01 in 10.0 mi North 8.1 mph - N/A   Overcast
1:55 PM 37.4 °F 30.3 °F 33.8 °F 87% 30.01 in 10.0 mi NNE 10.4 mph - N/A   Overcast
2:15 PM 37.4 °F 29.8 °F 32.0 °F 81% 30.01 in 10.0 mi NNE 11.5 mph - N/A   Overcast
2:35 PM 37.4 °F 29.8 °F 32.0 °F 81% 30.01 in 7.0 mi North 11.5 mph - N/A   Overcast
2:55 PM 37.4 °F 30.8 °F 33.8 °F 87% 29.99 in 9.0 mi North 9.2 mph - N/A   Overcast
3:15 PM 37.4 °F 30.8 °F 33.8 °F 87% 30.02 in 10.0 mi North 9.2 mph - N/A   Overcast
3:35 PM 37.4 °F 28.5 °F 33.8 °F 87% 30.03 in 10.0 mi North 15.0 mph - N/A   Overcast
3:55 PM 37.4 °F 29.3 °F 33.8 °F 87% 30.02 in 10.0 mi North 12.7 mph 17.3 mph N/A   Overcast
4:15 PM 37.4 °F 28.9 °F 33.8 °F 87% 30.02 in 10.0 mi NNE 13.8 mph - N/A   Overcast
4:35 PM 37.4 °F 29.3 °F 33.8 °F 87% 30.03 in 10.0 mi North 12.7 mph 17.3 mph N/A   Overcast
4:55 PM 37.4 °F 29.8 °F 33.8 °F 87% 30.04 in 10.0 mi North 11.5 mph - N/A   Overcast
5:15 PM 37.4 °F 30.8 °F 33.8 °F 87% 30.04 in 10.0 mi North 9.2 mph - N/A   Overcast
5:35 PM 37.4 °F 29.3 °F 33.8 °F 87% 30.05 in 10.0 mi North 12.7 mph 18.4 mph N/A   Overcast
5:55 PM 37.4 °F 28.9 °F 33.8 °F 87% 30.05 in 10.0 mi North 13.8 mph - N/A   Overcast
6:15 PM 37.4 °F 28.9 °F 33.8 °F 87% 30.06 in 9.0 mi North 13.8 mph 19.6 mph N/A   Overcast
6:35 PM 37.4 °F 28.9 °F 33.8 °F 87% 30.09 in 10.0 mi North 13.8 mph 18.4 mph N/A   Overcast
6:55 PM 37.4 °F 29.8 °F 33.8 °F 87% 30.08 in 10.0 mi NNE 11.5 mph - N/A   Overcast
7:15 PM 37.4 °F 28.9 °F 33.8 °F 87% 30.08 in 10.0 mi North 13.8 mph 20.7 mph N/A   Overcast
7:35 PM 37.4 °F 28.9 °F 33.8 °F 87% 30.10 in 7.0 mi North 13.8 mph 17.3 mph N/A   Overcast
7:55 PM 37.4 °F 28.2 °F 32.0 °F 81% 30.10 in 10.0 mi North 16.1 mph 21.9 mph N/A   Overcast
8:15 PM 35.6 °F 24.8 °F 32.0 °F 87% 30.09 in 10.0 mi North 19.6 mph 24.2 mph N/A   Overcast
8:35 PM 35.6 °F 24.5 °F 32.0 °F 87% 30.10 in 10.0 mi North 20.7 mph 27.6 mph N/A   Overcast
8:55 PM 35.6 °F 25.5 °F 32.0 °F 87% 30.10 in 10.0 mi North 17.3 mph 23.0 mph N/A   Overcast
9:15 PM 35.6 °F 24.8 °F 32.0 °F 87% 30.10 in 10.0 mi North 19.6 mph 24.2 mph N/A   Overcast
9:35 PM 35.6 °F 27.5 °F 32.0 °F 87% 30.11 in 10.0 mi North 11.5 mph 21.9 mph N/A   Overcast
9:55 PM 35.6 °F 26.6 °F 32.0 °F 87% 30.11 in 10.0 mi NNE 13.8 mph - N/A   Overcast
10:15 PM 35.6 °F 27.5 °F 32.0 °F 87% 30.10 in 10.0 mi North 11.5 mph 20.7 mph N/A   Overcast
10:35 PM 37.4 °F 29.3 °F 32.0 °F 81% 30.11 in 10.0 mi North 12.7 mph 16.1 mph N/A   Overcast
10:55 PM 35.6 °F 26.2 °F 32.0 °F 87% 30.11 in 10.0 mi North 15.0 mph 24.2 mph N/A   Overcast
11:15 PM 35.6 °F 25.5 °F 32.0 °F 87% 30.11 in 10.0 mi North 17.3 mph 24.2 mph N/A   Overcast
11:35 PM 35.6 °F 24.5 °F 32.0 °F 87% 30.11 in 10.0 mi North 20.7 mph 27.6 mph N/A   Overcast
11:55 PM 35.6 °F 25.5 °F 32.0 °F 87% 30.12 in 10.0 mi North 17.3 mph 21.9 mph N/A   Overcast